Flag for Belarus Weather past 2 weeks in Minsk, Belarus

Now
54 °F

Passing clouds.


Feels Like: 53 °F
Forecast: 52 / 60 °F
Wind: 3 mph from West

Location: Minsk

Current Time: Aug 28, 2014 at 2:14:12 AM

Latest Report: Aug 28, 2014 at 1:30 AM


Visibility: N/A

Pressure: 29.68 "Hg

Humidity: 94%

Dew point: 52 °F

Location of MinskLocation

Historic Weather in Minsk — Graph

°F

Minsk temperature yesterday

Maximum temperature yesterday: 64 °F (at 4:00 PM)
Minimum temperature yesterday: 50 °F (at 6:00 AM)
Average temperature yesterday: 55 °F

Past Weeks' High & Low Weather Summary

 TemperatureHumidityPressure
High81 °F (Aug 14, 2:30 PM)100% (Aug 13, 1:00 AM)30.07 "Hg (Aug 13, 1:00 AM)
Low43 °F (Aug 23, 6:00 AM)38% (Aug 13, 4:00 PM)29.45 "Hg (Aug 25, 7:00 AM)
Average60 °F78%29.84 "Hg
* Reported Aug 13 1:00 AM — Aug 28 1:00 AM, Minsk, Weather by CustomWeather, © 2014

Note: Actual official high and low records may vary slightly from our data, if they occured in-between our weather recording intervals... More about our weather records

Advertising

Minsk weather history for previous 24 hours

 ConditionsComfort  
Time TempWeatherWind HumidityBarometerVisibility
1:00 AM
Aug 28
54 °FPassing clouds.6 mph94%29.68 "HgN/A
12:30 AM55 °FPassing clouds.3 mph88%29.68 "HgN/A
12:00 AM55 °FPartly cloudy.3 mph88%29.68 "HgN/A
11:30 PM
Aug 27
55 °FPassing clouds.3 mph88%29.68 "HgN/A
11:00 PM55 °FClear.3 mph82%29.68 "Hg10 mi
10:30 PM54 °FPassing clouds.3 mph88%29.68 "HgN/A
10:00 PM54 °FClear.1 mph82%29.68 "Hg10 mi
9:30 PM55 °FPassing clouds.3 mph77%29.68 "HgN/A
8:30 PM57 °FSunny.1 mph72%29.68 "Hg10 mi
8:00 PM59 °FPassing clouds.3 mph63%29.68 "HgN/A
7:30 PM59 °FPassing clouds.6 mph63%29.68 "HgN/A
7:00 PM61 °FPassing clouds.6 mph59%29.68 "HgN/A
6:00 PM61 °FPassing clouds.3 mph55%29.68 "HgN/A
5:30 PM63 °FPassing clouds.8 mph52%29.68 "HgN/A
5:00 PM63 °FPartly sunny.8 mph52%29.68 "HgN/A
4:30 PM63 °FPartly sunny.8 mph52%29.68 "HgN/A
4:00 PM64 °FPartly sunny.8 mph49%29.68 "HgN/A
3:30 PM63 °FPartly sunny.8 mph52%29.68 "HgN/A
3:00 PM63 °FPartly sunny.8 mph52%29.68 "HgN/A
2:30 PM61 °FPartly sunny.8 mph59%29.68 "HgN/A
2:00 PM61 °FPartly sunny.8 mph59%29.68 "HgN/A
1:30 PM59 °FPartly sunny.6 mph68%29.68 "HgN/A
1:00 PM59 °FPartly sunny.3 mph72%29.71 "HgN/A
12:30 PM57 °FPartly sunny.6 mph72%29.71 "HgN/A
11:49 AM55 °FPartly sunny.6 mph77%29.71 "HgN/A
11:30 AM55 °FPartly sunny.6 mph77%29.71 "HgN/A
11:00 AM54 °FPartly sunny.3 mph88%29.71 "HgN/A
10:30 AM52 °FLow clouds.6 mph88%29.71 "HgN/A
10:00 AM52 °FLow clouds.6 mph88%29.71 "Hg5 mi
9:30 AM50 °FLow clouds.3 mph94%29.71 "Hg5 mi
9:00 AM50 °FLow clouds.3 mph94%29.68 "Hg5 mi
8:30 AM50 °FLow clouds.3 mph94%29.68 "Hg6 mi
8:00 AM50 °FLow clouds.3 mph94%29.68 "Hg6 mi
7:30 AM50 °FPartly sunny.6 mph94%29.68 "Hg4 mi
7:00 AM50 °FPassing clouds.1 mph94%29.68 "Hg4 mi
6:30 AM50 °FClear.3 mph94%29.68 "Hg4 mi
6:00 AM50 °FFog.3 mph100%29.68 "Hg2 mi
5:56 AM52 °FFog.3 mph94%29.68 "Hg2 mi
5:30 AM52 °FFog.1 mph94%29.68 "Hg2 mi
5:00 AM52 °FFog.1 mph94%29.68 "Hg3 mi
4:30 AM52 °FFog.1 mph94%29.68 "Hg3 mi
4:00 AM52 °FFog.1 mph100%29.68 "Hg3 mi
3:30 AM52 °FLight rain. Fog.3 mph100%29.68 "Hg3 mi
3:00 AM52 °FDrizzle. Mostly cloudy.1 mph100%29.68 "Hg4 mi
2:30 AM52 °FDrizzle. Mostly cloudy.3 mph100%29.68 "Hg4 mi
2:00 AM52 °FDrizzle. Low clouds.1 mph100%29.68 "Hg4 mi
Weather by CustomWeather, © 2014

See weather overviewHow to use our weather pages